User: anonymous   Login
Location: Fort Wayne
(41.1310°N, 85.1290°W)
Time: 03:37:09
(UTC-05:00)
Language:

OPAL - Orbit

View from above orbital plane
View from above orbital plane
View from above satellite
View from above satellite

Ground track
Ground track

The orbit data is extracted from the following two-line orbital elements,

1 26063U 00004C   17018.48509794 -.00000002  00000-0  19201-4 0  9994
2 26063 100.2163 354.2740 0036681  11.5105 348.6906 14.36649546889889
Epoch (UTC): 18 January 2017 11:38:32
Eccentricity: 0.0036681
inclination: 100.2163°
perigee height: 743 km
apogee height: 796 km
right ascension of ascending node: 354.2740°
argument of perigee: 11.5105°
revolutions per day: 14.36649546
mean anomaly at epoch: 348.6906°
orbit number at epoch: 88988

The dashed part of the orbit path shows where the satellite is in the earth's shadow,  

DLR